#Datum;Uhrzeit;WR;Pac;DaySum;Status;WR;Pac;DaySum;Status;Pdc1;Udc;Temp;WR;Pac;DaySum;Status;Pdc1;Udc;Temp;WR;Pac;DaySum;Status;Pdc1;Udc;Temp;WR;Pac;DaySum;Status;Pdc1;Pdc2;Udc1;Udc2;Temp;WR;Pac;DaySum;Status;Pdc1;Pdc2;Udc1;Udc2;Temp;WR;Pac;DaySum;Status;Pdc1;Udc;Temp;WR;Pac;DaySum;Status;Pdc1;Udc;Temp;WR;Pac;DaySum;Status;Pdc1;Udc;Temp
21.01.18;23:55:00;1;290;14528;0;2;0;287;0;0;0;0;3;0;859;0;0;0;0;4;0;122;0;0;0;0;5;0;624;0;0;0;0;0;0;6;0;340;0;0;0;0;0;0;7;0;1119;0;0;0;0;8;0;1927;0;0;0;0;9;0;973;0;0;0;0
21.01.18;23:50:00;1;719;14504;0;2;0;287;0;0;0;0;3;0;859;0;0;0;0;4;0;122;0;0;0;0;5;0;624;0;0;0;0;0;0;6;0;340;0;0;0;0;0;0;7;0;1119;0;0;0;0;8;0;1927;0;0;0;0;9;0;973;0;0;0;0
21.01.18;23:45:00;1;292;14452;0;2;0;287;0;0;0;0;3;0;859;0;0;0;0;4;0;122;0;0;0;0;5;0;624;0;0;0;0;0;0;6;0;340;0;0;0;0;0;0;7;0;1119;0;0;0;0;8;0;1927;0;0;0;0;9;0;973;0;0;0;0
21.01.18;23:40:00;1;697;14427;0;2;0;287;0;0;0;0;3;0;859;0;0;0;0;4;0;122;0;0;0;0;5;0;624;0;0;0;0;0;0;6;0;340;0;0;0;0;0;0;7;0;1119;0;0;0;0;8;0;1927;0;0;0;0;9;0;973;0;0;0;0
21.01.18;23:35:00;1;292;14373;0;2;0;287;0;0;0;0;3;0;859;0;0;0;0;4;0;122;0;0;0;0;5;0;624;0;0;0;0;0;0;6;0;340;0;0;0;0;0;0;7;0;1119;0;0;0;0;8;0;1927;0;0;0;0;9;0;973;0;0;0;0
21.01.18;23:30:00;1;647;14348;0;2;0;287;0;0;0;0;3;0;859;0;0;0;0;4;0;122;0;0;0;0;5;0;624;0;0;0;0;0;0;6;0;340;0;0;0;0;0;0;7;0;1119;0;0;0;0;8;0;1927;0;0;0;0;9;0;973;0;0;0;0
21.01.18;23:25:00;1;286;14295;0;2;0;287;0;0;0;0;3;0;859;0;0;0;0;4;0;122;0;0;0;0;5;0;624;0;0;0;0;0;0;6;0;340;0;0;0;0;0;0;7;0;1119;0;0;0;0;8;0;1927;0;0;0;0;9;0;973;0;0;0;0
21.01.18;23:20:00;1;778;14272;0;2;0;287;0;0;0;0;3;0;859;0;0;0;0;4;0;122;0;0;0;0;5;0;624;0;0;0;0;0;0;6;0;340;0;0;0;0;0;0;7;0;1119;0;0;0;0;8;0;1927;0;0;0;0;9;0;973;0;0;0;0
21.01.18;23:15:00;1;315;14213;0;2;0;287;0;0;0;0;3;0;859;0;0;0;0;4;0;122;0;0;0;0;5;0;624;0;0;0;0;0;0;6;0;340;0;0;0;0;0;0;7;0;1119;0;0;0;0;8;0;1927;0;0;0;0;9;0;973;0;0;0;0
21.01.18;23:10:00;1;1007;14187;0;2;0;287;0;0;0;0;3;0;859;0;0;0;0;4;0;122;0;0;0;0;5;0;624;0;0;0;0;0;0;6;0;340;0;0;0;0;0;0;7;0;1119;0;0;0;0;8;0;1927;0;0;0;0;9;0;973;0;0;0;0
21.01.18;23:06:00;1;1718;14147;0;2;0;287;0;0;0;0;3;0;859;0;0;0;0;4;0;122;0;0;0;0;5;0;624;0;0;0;0;0;0;6;0;340;0;0;0;0;0;0;7;0;1119;0;0;0;0;8;0;1927;0;0;0;0;9;0;973;0;0;0;0
21.01.18;23:00:00;1;1862;14062;0;2;0;287;0;0;0;0;3;0;859;0;0;0;0;4;0;122;0;0;0;0;5;0;624;0;0;0;0;0;0;6;0;340;0;0;0;0;0;0;7;0;1119;0;0;0;0;8;0;1927;0;0;0;0;9;0;973;0;0;0;0
21.01.18;22:55:00;1;192;13922;0;2;0;287;0;0;0;0;3;0;859;0;0;0;0;4;0;122;0;0;0;0;5;0;624;2;0;0;0;0;0;6;0;340;2;0;0;0;0;0;7;0;1119;0;0;0;0;8;0;1927;0;0;0;0;9;0;973;0;0;0;0
21.01.18;22:50:00;1;364;13906;0;2;0;287;0;0;0;0;3;0;859;0;0;0;0;4;0;122;0;0;0;0;5;0;624;2;0;0;0;0;0;6;0;340;2;0;0;0;0;0;7;0;1119;0;0;0;0;8;0;1927;0;0;0;0;9;0;973;0;0;0;0
21.01.18;22:45:00;1;184;13863;0;2;0;287;0;0;0;0;3;0;859;0;0;0;0;4;0;122;0;0;0;0;5;0;624;2;0;0;0;0;0;6;0;340;2;0;0;0;0;0;7;0;1119;0;0;0;0;8;0;1927;0;0;0;0;9;0;973;0;0;0;0
21.01.18;22:40:00;1;534;13847;0;2;0;287;0;0;0;0;3;0;859;0;0;0;0;4;0;122;0;0;0;0;5;0;624;2;0;0;0;0;0;6;0;340;2;0;0;0;0;0;7;0;1119;0;0;0;0;8;0;1927;0;0;0;0;9;0;973;0;0;0;0
21.01.18;22:35:00;1;183;13801;0;2;0;287;0;0;0;0;3;0;859;0;0;0;0;4;0;122;0;0;0;0;5;0;624;2;0;0;0;0;0;6;0;340;2;0;0;0;0;0;7;0;1119;0;0;0;0;8;0;1927;0;0;0;0;9;0;973;0;0;0;0
21.01.18;22:30:00;1;535;13786;0;2;0;287;0;0;0;0;3;0;859;0;0;0;0;4;0;122;0;0;0;0;5;0;624;2;0;0;0;0;0;6;0;340;2;0;0;0;0;0;7;0;1119;0;0;0;0;8;0;1927;0;0;0;0;9;0;973;0;0;0;0
21.01.18;22:25:00;1;218;13741;0;2;0;287;0;0;0;0;3;0;859;0;0;0;0;4;0;122;0;0;0;0;5;0;624;2;0;0;0;0;0;6;0;340;2;0;0;0;0;0;7;0;1119;0;0;0;0;8;0;1927;0;0;0;0;9;0;973;0;0;0;0
21.01.18;22:20:00;1;622;13723;0;2;0;287;0;0;0;0;3;0;859;0;0;0;0;4;0;122;0;0;0;0;5;0;624;2;0;0;0;0;0;6;0;340;2;0;0;0;0;0;7;0;1119;0;0;0;0;8;0;1927;0;0;0;0;9;0;973;0;0;0;0
21.01.18;22:15:00;1;366;13667;0;2;0;287;0;0;0;0;3;0;859;0;0;0;0;4;0;122;0;0;0;0;5;0;624;2;0;0;0;0;0;6;0;340;2;0;0;0;0;0;7;0;1119;0;0;0;0;8;0;1927;0;0;0;0;9;0;973;0;0;0;0
21.01.18;22:10:00;1;551;13636;0;2;0;287;0;0;0;0;3;0;859;0;0;0;0;4;0;122;0;0;0;0;5;0;624;2;0;0;0;0;0;6;0;340;2;0;0;0;0;0;7;0;1119;0;0;0;0;8;0;1927;0;0;0;0;9;0;973;0;0;0;0
21.01.18;22:05:00;1;461;13575;0;2;0;287;0;0;0;0;3;0;859;0;0;0;0;4;0;122;0;0;0;0;5;0;624;2;0;0;0;0;0;6;0;340;2;0;0;0;0;0;7;0;1119;0;0;0;0;8;0;1927;0;0;0;0;9;0;973;0;0;0;0
21.01.18;22:00:00;1;644;13536;0;2;0;287;0;0;0;0;3;0;859;0;0;0;0;4;0;122;0;0;0;0;5;0;624;2;0;0;0;0;0;6;0;340;2;0;0;0;0;0;7;0;1119;0;0;0;0;8;0;1927;0;0;0;0;9;0;973;0;0;0;0
21.01.18;21:55:00;1;467;13469;0;2;0;287;0;0;0;0;3;0;859;0;0;0;0;4;0;122;0;0;0;0;5;0;624;2;0;0;0;0;0;6;0;340;2;0;0;0;0;0;7;0;1119;0;0;0;0;8;0;1927;0;0;0;0;9;0;973;0;0;0;0
21.01.18;21:50:00;1;653;13430;0;2;0;287;0;0;0;0;3;0;859;0;0;0;0;4;0;122;0;0;0;0;5;0;624;2;0;0;0;0;0;6;0;340;2;0;0;0;0;0;7;0;1119;0;0;0;0;8;0;1927;0;0;0;0;9;0;973;0;0;0;0
21.01.18;21:45:00;1;606;13366;0;2;0;287;0;0;0;0;3;0;859;0;0;0;0;4;0;122;0;0;0;0;5;0;624;2;0;0;0;0;0;6;0;340;2;0;0;0;0;0;7;0;1119;0;0;0;0;8;0;1927;0;0;0;0;9;0;973;0;0;0;0
21.01.18;21:40:00;1;400;13330;0;2;0;287;0;0;0;0;3;0;859;0;0;0;0;4;0;122;0;0;0;0;5;0;624;2;0;0;0;0;0;6;0;340;2;0;0;0;0;0;7;0;1119;0;0;0;0;8;0;1927;0;0;0;0;9;0;973;0;0;0;0
21.01.18;21:35:00;1;606;13283;0;2;0;287;0;0;0;0;3;0;859;0;0;0;0;4;0;122;0;0;0;0;5;0;624;2;0;0;0;0;0;6;0;340;2;0;0;0;0;0;7;0;1119;0;0;0;0;8;0;1927;0;0;0;0;9;0;973;0;0;0;0
21.01.18;21:30:00;1;432;13234;0;2;0;287;0;0;0;0;3;0;859;0;0;0;0;4;0;122;0;0;0;0;5;0;624;2;0;0;0;0;0;6;0;340;2;0;0;0;0;0;7;0;1119;0;0;0;0;8;0;1927;0;0;0;0;9;0;973;0;0;0;0
21.01.18;21:25:00;1;686;13193;0;2;0;287;0;0;0;0;3;0;859;0;0;0;0;4;0;122;0;0;0;0;5;0;624;2;0;0;0;0;0;6;0;340;2;0;0;0;0;0;7;0;1119;0;0;0;0;8;0;1927;0;0;0;0;9;0;973;0;0;0;0
21.01.18;21:20:00;1;490;13129;0;2;0;287;0;0;0;0;3;0;859;0;0;0;0;4;0;122;0;0;0;0;5;0;624;2;0;0;0;0;0;6;0;340;2;0;0;0;0;0;7;0;1119;0;0;0;0;8;0;1927;0;0;0;0;9;0;973;0;0;0;0
21.01.18;21:15:00;1;856;13088;0;2;0;287;0;0;0;0;3;0;859;0;0;0;0;4;0;122;0;0;0;0;5;0;624;2;0;0;0;0;0;6;0;340;2;0;0;0;0;0;7;0;1119;0;0;0;0;8;0;1927;0;0;0;0;9;0;973;0;0;0;0
21.01.18;21:10:00;1;445;13021;0;2;0;287;0;0;0;0;3;0;859;0;0;0;0;4;0;122;0;0;0;0;5;0;624;2;0;0;0;0;0;6;0;340;2;0;0;0;0;0;7;0;1119;0;0;0;0;8;0;1927;0;0;0;0;9;0;973;0;0;0;0
21.01.18;21:05:00;1;1272;12984;0;2;0;287;0;0;0;0;3;0;859;0;0;0;0;4;0;122;0;0;0;0;5;0;624;2;0;0;0;0;0;6;0;340;2;0;0;0;0;0;7;0;1119;0;0;0;0;8;0;1927;0;0;0;0;9;0;973;0;0;0;0
21.01.18;21:00:00;1;442;12918;0;2;0;287;0;0;0;0;3;0;859;0;0;0;0;4;0;122;0;0;0;0;5;0;624;2;0;0;0;0;0;6;0;340;2;0;0;0;0;0;7;0;1119;0;0;0;0;8;0;1927;0;0;0;0;9;0;973;0;0;0;0
21.01.18;20:55:00;1;897;12881;0;2;0;287;0;0;0;0;3;0;859;0;0;0;0;4;0;122;0;0;0;0;5;0;624;2;0;0;0;0;0;6;0;340;2;0;0;0;0;0;7;0;1119;0;0;0;0;8;0;1927;0;0;0;0;9;0;973;0;0;0;0
21.01.18;20:50:00;1;424;12816;0;2;0;287;0;0;0;0;3;0;859;0;0;0;0;4;0;122;0;0;0;0;5;0;624;2;0;0;0;0;0;6;0;340;2;0;0;0;0;0;7;0;1119;0;0;0;0;8;0;1927;0;0;0;0;9;0;973;0;0;0;0
21.01.18;20:45:00;1;854;12780;0;2;0;287;0;0;0;0;3;0;859;0;0;0;0;4;0;122;0;0;0;0;5;0;624;2;0;0;0;0;0;6;0;340;2;0;0;0;0;0;7;0;1119;0;0;0;0;8;0;1927;0;0;0;0;9;0;973;0;0;0;0
21.01.18;20:40:00;1;466;12715;0;2;0;287;0;0;0;0;3;0;859;0;0;0;0;4;0;122;0;0;0;0;5;0;624;2;0;0;0;0;0;6;0;340;2;0;0;0;0;0;7;0;1119;0;0;0;0;8;0;1927;0;0;0;0;9;0;973;0;0;0;0
21.01.18;20:35:00;1;887;12676;0;2;0;287;0;0;0;0;3;0;859;0;0;0;0;4;0;122;0;0;0;0;5;0;624;2;0;0;0;0;0;6;0;340;2;0;0;0;0;0;7;0;1119;0;0;0;0;8;0;1927;0;0;0;0;9;0;973;0;0;0;0
21.01.18;20:30:00;1;560;12607;0;2;0;287;0;0;0;0;3;0;859;0;0;0;0;4;0;122;0;0;0;0;5;0;624;2;0;0;0;0;0;6;0;340;2;0;0;0;0;0;7;0;1119;0;0;0;0;8;0;1927;0;0;0;0;9;0;973;0;0;0;0
21.01.18;20:25:00;1;1031;12560;0;2;0;287;0;0;0;0;3;0;859;0;0;0;0;4;0;122;0;0;0;0;5;0;624;2;0;0;0;0;0;6;0;340;2;0;0;0;0;0;7;0;1119;0;0;0;0;8;0;1927;0;0;0;0;9;0;973;0;0;0;0
21.01.18;20:20:00;1;566;12478;0;2;0;287;0;0;0;0;3;0;859;0;0;0;0;4;0;122;0;0;0;0;5;0;624;2;0;0;0;0;0;6;0;340;2;0;0;0;0;0;7;0;1119;0;0;0;0;8;0;1927;0;0;0;0;9;0;973;0;0;0;0
21.01.18;20:15:00;1;974;12430;0;2;0;287;0;0;0;0;3;0;859;0;0;0;0;4;0;122;0;0;0;0;5;0;624;2;0;0;0;0;0;6;0;340;2;0;0;0;0;0;7;0;1119;0;0;0;0;8;0;1927;0;0;0;0;9;0;973;0;0;0;0
21.01.18;20:10:00;1;487;12359;0;2;0;287;0;0;0;0;3;0;859;0;0;0;0;4;0;122;0;0;0;0;5;0;624;2;0;0;0;0;0;6;0;340;2;0;0;0;0;0;7;0;1119;0;0;0;0;8;0;1927;0;0;0;0;9;0;973;0;0;0;0
21.01.18;20:05:00;1;863;12318;0;2;0;287;0;0;0;0;3;0;859;0;0;0;0;4;0;122;0;0;0;0;5;0;624;2;0;0;0;0;0;6;0;340;2;0;0;0;0;0;7;0;1119;0;0;0;0;8;0;1927;0;0;0;0;9;0;973;0;0;0;0
21.01.18;20:00:00;1;710;12253;0;2;0;287;0;0;0;0;3;0;859;0;0;0;0;4;0;122;0;0;0;0;5;0;624;2;0;0;0;0;0;6;0;340;2;0;0;0;0;0;7;0;1119;0;0;0;0;8;0;1927;0;0;0;0;9;0;973;0;0;0;0
21.01.18;19:55:00;1;1994;12175;0;2;0;287;0;0;0;0;3;0;859;0;0;0;0;4;0;122;0;0;0;0;5;0;624;2;0;0;0;0;0;6;0;340;2;0;0;0;0;0;7;0;1119;0;0;0;0;8;0;1927;0;0;0;0;9;0;973;0;0;0;0
21.01.18;19:50:00;1;2462;12016;0;2;0;287;0;0;0;0;3;0;859;0;0;0;0;4;0;122;0;0;0;0;5;0;624;2;0;0;0;0;0;6;0;340;2;0;0;0;0;0;7;0;1119;0;0;0;0;8;0;1927;0;0;0;0;9;0;973;0;0;0;0
21.01.18;19:45:00;1;2657;11811;0;2;0;287;0;0;0;0;3;0;859;0;0;0;0;4;0;122;0;0;0;0;5;0;624;2;0;0;0;0;0;6;0;340;2;0;0;0;0;0;7;0;1119;0;0;0;0;8;0;1927;0;0;0;0;9;0;973;0;0;0;0
21.01.18;19:40:00;1;2233;11578;0;2;0;287;0;0;0;0;3;0;859;0;0;0;0;4;0;122;0;0;0;0;5;0;624;2;0;0;0;0;0;6;0;340;2;0;0;0;0;0;7;0;1119;0;0;0;0;8;0;1927;0;0;0;0;9;0;973;0;0;0;0
21.01.18;19:35:00;1;680;11426;0;2;0;287;0;0;0;0;3;0;859;0;0;0;0;4;0;122;0;0;0;0;5;0;624;2;0;0;0;0;0;6;0;340;2;0;0;0;0;0;7;0;1119;0;0;0;0;8;0;1927;0;0;0;0;9;0;973;0;0;0;0
21.01.18;19:30:00;1;441;11358;0;2;0;287;0;0;0;0;3;0;859;0;0;0;0;4;0;122;0;0;0;0;5;0;624;2;0;0;0;0;0;6;0;340;2;0;0;0;0;0;7;0;1119;0;0;0;0;8;0;1927;0;0;0;0;9;0;973;0;0;0;0
21.01.18;19:25:00;1;822;11321;0;2;0;287;0;0;0;0;3;0;859;0;0;0;0;4;0;122;0;0;0;0;5;0;624;2;0;0;0;0;0;6;0;340;2;0;0;0;0;0;7;0;1119;0;0;0;0;8;0;1927;0;0;0;0;9;0;973;0;0;0;0
21.01.18;19:20:00;1;402;11255;0;2;0;287;0;0;0;0;3;0;859;0;0;0;0;4;0;122;0;0;0;0;5;0;624;2;0;0;0;0;0;6;0;340;2;0;0;0;0;0;7;0;1119;0;0;0;0;8;0;1927;0;0;0;0;9;0;973;0;0;0;0
21.01.18;19:15:00;1;602;11222;0;2;0;287;0;0;0;0;3;0;859;0;0;0;0;4;0;122;0;0;0;0;5;0;624;2;0;0;0;0;0;6;0;340;2;0;0;0;0;0;7;0;1119;0;0;0;0;8;0;1927;0;0;0;0;9;0;973;0;0;0;0
21.01.18;19:10:00;1;400;11160;0;2;0;287;0;0;0;0;3;0;859;0;0;0;0;4;0;122;0;0;0;0;5;0;624;2;0;0;0;0;0;6;0;340;2;0;0;0;0;0;7;0;1119;0;0;0;0;8;0;1927;0;0;0;0;9;0;973;0;0;0;0
21.01.18;19:05:00;1;599;11126;0;2;0;287;0;0;0;0;3;0;859;0;0;0;0;4;0;122;0;0;0;0;5;0;624;2;0;0;0;0;0;6;0;340;2;0;0;0;0;0;7;0;1119;0;0;0;0;8;0;1927;0;0;0;0;9;0;973;0;0;0;0
21.01.18;19:00:00;1;795;11069;0;2;0;287;0;0;0;0;3;0;859;0;0;0;0;4;0;122;0;0;0;0;5;0;624;2;0;0;0;0;0;6;0;340;2;0;0;0;0;0;7;0;1119;0;0;0;0;8;0;1927;0;0;0;0;9;0;973;0;0;0;0
21.01.18;18:55:00;1;467;11026;0;2;0;287;0;0;0;0;3;0;859;0;0;0;0;4;0;122;0;0;0;0;5;0;624;2;0;0;0;0;0;6;0;340;2;0;0;0;0;0;7;0;1119;0;0;0;0;8;0;1927;0;0;0;0;9;0;973;0;0;0;0
21.01.18;18:50:00;1;863;10969;0;2;0;287;0;0;0;0;3;0;859;0;0;0;0;4;0;122;0;0;0;0;5;0;624;2;0;0;0;0;0;6;0;340;2;0;0;0;0;0;7;0;1119;0;0;0;0;8;0;1927;0;0;0;0;9;0;973;0;0;0;0
21.01.18;18:45:00;1;509;10917;0;2;0;287;0;0;0;0;3;0;859;0;0;0;0;4;0;122;0;0;0;0;5;0;624;2;0;0;0;0;0;6;0;340;2;0;0;0;0;0;7;0;1119;0;0;0;0;8;0;1927;0;0;0;0;9;0;973;0;0;0;0
21.01.18;18:40:00;1;901;10870;0;2;0;287;0;0;0;0;3;0;859;0;0;0;0;4;0;122;0;0;0;0;5;0;624;2;0;0;0;0;0;6;0;340;2;0;0;0;0;0;7;0;1119;0;0;0;0;8;0;1927;0;0;0;0;9;0;973;0;0;0;0
21.01.18;18:35:00;1;296;10812;0;2;0;287;0;0;0;0;3;0;859;0;0;0;0;4;0;122;0;0;0;0;5;0;624;2;0;0;0;0;0;6;0;340;2;0;0;0;0;0;7;0;1119;0;0;0;0;8;0;1927;0;0;0;0;9;0;973;0;0;0;0
21.01.18;18:30:00;1;440;10787;0;2;0;287;0;0;0;0;3;0;859;0;0;0;0;4;0;122;0;0;0;0;5;0;624;2;0;0;0;0;0;6;0;340;2;0;0;0;0;0;7;0;1119;0;0;0;0;8;0;1927;0;0;0;0;9;0;973;0;0;0;0
21.01.18;18:25:00;1;187;10735;0;2;0;287;0;0;0;0;3;0;859;0;0;0;0;4;0;122;0;0;0;0;5;0;624;2;0;0;0;0;0;6;0;340;2;0;0;0;0;0;7;0;1119;0;0;0;0;8;0;1927;0;0;0;0;9;0;973;0;0;0;0
21.01.18;18:20:00;1;713;10719;0;2;0;287;0;0;0;0;3;0;859;0;0;0;0;4;0;122;0;0;0;0;5;0;624;2;0;0;0;0;0;6;0;340;2;0;0;0;0;0;7;0;1119;0;0;0;0;8;0;1927;0;0;0;0;9;0;973;0;0;0;0
21.01.18;18:15:00;1;187;10674;0;2;0;287;0;0;0;0;3;0;859;0;0;0;0;4;0;122;0;0;0;0;5;0;624;2;0;0;0;0;0;6;0;340;2;0;0;0;0;0;7;0;1119;0;0;0;0;8;0;1927;0;0;0;0;9;0;973;0;0;0;0
21.01.18;18:10:00;1;610;10658;0;2;0;287;0;0;0;0;3;0;859;0;0;0;0;4;0;122;0;0;0;0;5;0;624;2;0;0;0;0;0;6;0;340;2;0;0;0;0;0;7;0;1119;0;0;0;0;8;0;1927;0;0;0;0;9;0;973;0;0;0;0
21.01.18;18:05:00;1;187;10615;0;2;0;287;0;0;0;0;3;0;859;0;0;0;0;4;0;122;0;0;0;0;5;0;624;2;0;0;0;0;0;6;0;340;2;0;0;0;0;0;7;0;1119;0;0;0;0;8;0;1927;0;0;0;0;9;0;973;0;0;0;0
21.01.18;18:00:00;1;1004;10599;0;2;0;287;0;0;0;0;3;0;859;0;0;0;0;4;0;122;0;0;0;0;5;0;624;2;0;0;0;0;0;6;0;340;2;0;0;0;0;0;7;0;1119;0;0;0;0;8;0;1927;0;0;0;0;9;0;973;0;0;0;0
21.01.18;17:55:00;1;188;10553;0;2;0;287;0;0;0;0;3;0;859;0;0;0;0;4;0;122;0;0;0;0;5;0;624;2;0;0;0;0;0;6;0;340;2;0;0;0;0;0;7;0;1119;0;0;0;0;8;0;1927;0;0;0;0;9;0;973;0;0;0;0
21.01.18;17:50:00;1;566;10537;0;2;0;287;0;0;0;0;3;0;859;0;0;0;0;4;0;122;0;0;0;0;5;0;624;2;0;0;0;0;0;6;0;340;2;0;0;0;0;0;7;0;1119;0;0;0;0;8;0;1927;0;0;0;0;9;0;973;0;0;0;0
21.01.18;17:45:00;1;211;10494;0;2;0;287;0;0;0;0;3;0;859;0;0;0;0;4;0;122;0;0;0;0;5;0;624;2;0;0;0;0;0;6;0;340;2;0;0;0;0;0;7;0;1119;0;0;0;0;8;0;1927;0;0;0;0;9;0;973;0;0;0;0
21.01.18;17:40:00;1;586;10476;0;2;0;287;0;0;0;0;3;0;859;0;0;0;0;4;0;122;0;0;0;0;5;0;624;2;0;0;0;0;0;6;0;340;2;0;0;0;0;0;7;0;1119;0;0;0;0;8;0;1927;0;0;0;0;9;0;973;0;0;0;0
21.01.18;17:35:00;1;231;10428;0;2;0;287;0;0;0;0;3;0;859;0;0;0;0;4;0;122;0;0;0;0;5;0;624;2;0;0;0;0;0;6;0;340;2;0;0;0;0;0;7;0;1119;0;0;0;0;8;0;1927;0;0;0;0;9;0;973;0;0;0;0
21.01.18;17:30:00;1;400;10408;0;2;0;287;0;0;0;0;3;0;859;0;0;0;0;4;0;122;0;0;0;0;5;0;624;2;0;0;0;0;0;6;0;340;2;0;0;0;0;0;7;0;1119;0;0;0;0;8;0;1927;0;0;0;0;9;0;973;0;0;0;0
21.01.18;17:25:00;1;187;10360;0;2;0;287;0;0;0;0;3;0;859;0;0;0;0;4;0;122;0;0;0;0;5;0;624;2;0;0;0;0;0;6;0;340;2;0;0;0;0;0;7;0;1119;0;0;0;0;8;0;1927;0;0;0;0;9;0;973;0;0;0;0
21.01.18;17:20:00;1;388;10345;0;2;0;287;0;0;0;0;3;0;859;0;0;0;0;4;0;122;0;0;0;0;5;0;624;2;0;0;0;0;0;6;0;340;2;0;0;0;0;0;7;0;1119;0;0;0;0;8;0;1927;0;0;0;0;9;0;973;0;0;0;0
21.01.18;17:15:00;1;226;10302;0;2;0;287;0;0;0;0;3;0;859;0;0;0;0;4;0;122;0;0;0;0;5;0;624;2;0;0;0;0;0;6;0;340;2;0;0;0;0;0;7;0;1119;0;0;0;0;8;0;1927;0;0;0;0;9;0;973;0;0;0;0
21.01.18;17:10:00;1;256;10283;0;2;0;287;0;0;0;0;3;0;859;0;0;73;3;4;0;122;0;0;0;0;5;0;624;2;0;0;0;0;0;6;0;340;2;0;0;0;0;0;7;0;1119;0;0;0;0;8;0;1927;0;0;0;0;9;0;973;0;0;0;0
21.01.18;17:05:00;1;496;10244;0;2;0;287;0;0;174;5;3;0;859;6;0;290;11;4;0;122;0;0;0;0;5;0;624;2;0;0;0;0;0;6;0;340;2;0;0;0;0;0;7;0;1119;0;0;0;0;8;0;1927;0;0;0;0;9;0;973;0;0;0;0
21.01.18;17:00:00;1;253;10211;0;2;0;287;6;0;295;8;3;0;859;6;0;341;12;4;0;122;0;0;63;4;5;0;624;2;0;0;0;0;0;6;0;340;0;0;0;0;0;0;7;0;1119;0;0;0;0;8;0;1927;0;0;0;0;9;0;973;0;0;0;0
21.01.18;16:55:00;1;487;10182;0;2;0;287;6;0;321;8;3;0;859;6;0;398;12;4;0;122;1;0;95;5;5;0;624;2;0;0;0;0;0;6;0;340;0;0;0;0;0;0;7;0;1119;0;0;0;0;8;0;1927;0;0;0;0;9;0;973;0;0;41;1
21.01.18;16:50:00;1;280;10140;0;2;0;287;6;0;354;8;3;0;859;6;0;430;12;4;0;122;1;0;130;5;5;0;624;2;0;0;0;0;0;6;0;340;1;0;0;0;0;5;7;0;1119;0;0;235;9;8;0;1927;11;0;283;11;9;0;973;6;0;300;7
21.01.18;16:45:00;1;720;10117;0;2;0;287;6;0;375;8;3;0;859;4;2;453;12;4;0;122;1;0;159;6;5;0;624;2;0;1;115;114;9;6;0;340;0;4;3;129;240;12;7;0;1119;6;0;333;11;8;0;1927;6;0;343;11;9;0;973;6;0;361;7
21.01.18;16:40:00;1;398;10050;0;2;0;287;6;0;393;8;3;1;859;3;6;456;12;4;0;122;1;0;191;6;5;0;624;2;0;0;302;328;17;6;0;340;23;6;6;180;533;15;7;0;1119;6;0;394;11;8;0;1927;6;0;404;11;9;0;973;6;0;423;8
21.01.18;16:35:00;1;633;10017;0;2;1;287;6;2;396;8;3;1;858;6;4;496;12;4;0;122;1;0;204;6;5;0;624;26;0;1;405;419;17;6;0;340;23;8;5;516;257;15;7;0;1119;6;0;423;12;8;0;1927;6;0;432;12;9;0;973;6;0;463;8
21.01.18;16:30:00;1;423;9957;0;2;0;287;6;4;412;8;3;0;858;6;5;521;12;4;0;122;3;0;217;6;5;5;624;1;0;3;416;560;17;6;0;340;23;5;5;253;526;16;7;2;1119;6;3;469;12;8;1;1927;6;3;473;12;9;1;973;6;2;520;8
21.01.18;16:25:00;1;636;9923;0;2;1;286;6;5;414;8;3;1;858;6;7;523;12;4;0;122;3;0;215;7;5;0;624;26;0;1;433;660;17;6;0;340;23;5;5;269;525;16;7;1;1118;6;5;474;12;8;0;1927;4;5;476;12;9;2;973;3;4;502;8
21.01.18;16:20:00;1;329;9865;0;2;4;286;6;11;411;9;3;2;858;6;8;539;12;4;0;122;3;0;224;7;5;7;623;4;1;2;429;696;17;6;0;340;23;4;3;332;609;16;7;1;1118;4;7;489;12;8;12;1927;3;20;463;12;9;3;973;6;5;545;8
21.01.18;16:15:00;1;1500;9838;0;2;0;286;6;0;447;9;3;5;858;4;11;542;12;4;0;122;3;0;248;7;5;10;622;4;1;2;436;707;18;6;0;340;23;5;4;494;620;17;7;50;1118;4;83;412;12;8;55;1926;4;89;454;12;9;5;972;6;10;557;8
21.01.18;16:10:00;1;2212;9692;0;2;49;286;4;70;355;9;3;17;857;3;29;535;12;4;3;122;3;3;200;7;5;21;621;4;5;9;431;702;18;6;0;340;8;6;2;515;626;17;7;67;1114;4;99;417;12;8;70;1922;4;106;476;12;9;13;972;6;23;539;8
21.01.18;16:05:00;1;2465;9508;0;2;51;282;4;73;353;9;3;36;856;4;56;504;13;4;7;122;3;7;199;7;5;24;620;4;6;9;434;712;18;6;0;340;23;5;3;623;627;17;7;78;1108;4;108;383;12;8;94;1916;4;128;451;12;9;7;971;6;14;565;8
21.01.18;16:00:00;1;1611;9296;0;2;53;278;4;76;355;9;3;52;853;6;83;485;13;4;6;121;3;6;200;7;5;62;618;1;16;23;396;642;19;6;44;340;1;18;23;497;474;18;7;93;1102;4;116;371;12;8;102;1908;4;143;445;12;9;9;970;6;11;572;8
21.01.18;15:55:00;1;1609;9201;0;2;75;273;4;96;356;9;3;86;849;4;121;475;13;4;21;121;3;21;200;7;5;93;612;4;31;36;385;623;19;6;68;336;4;35;44;467;444;18;7;121;1094;4;147;374;12;8;151;1899;4;186;440;12;9;85;970;4;107;490;9
21.01.18;15:50:00;1;660;9046;0;2;88;267;4;112;355;9;3;104;841;4;143;485;13;4;25;119;3;26;199;7;5;105;604;4;37;40;385;623;19;6;77;330;4;25;32;467;444;18;7;161;1084;4;190;387;12;8;197;1887;4;229;425;12;9;102;963;4;133;500;9
21.01.18;15:45:00;1;421;9004;0;2;104;260;4;126;354;9;3;123;833;4;160;496;13;4;33;117;3;34;200;7;5;116;596;4;46;44;385;623;19;6;85;324;4;30;37;467;444;18;7;190;1071;4;223;432;12;8;238;1871;4;276;466;12;9;129;954;4;156;526;9
21.01.18;15:40:00;1;2322;8967;0;2;104;251;4;124;352;9;3;121;823;4;161;496;13;4;34;114;3;35;200;6;5;117;586;4;44;44;385;623;19;6;83;317;4;39;45;467;444;18;7;181;1055;4;216;458;12;8;235;1851;4;276;482;12;9;125;944;4;156;530;8
21.01.18;15:35:00;1;1263;8775;0;2;86;242;4;108;355;9;3;107;812;4;143;495;13;4;27;111;3;28;199;6;5;103;576;4;37;42;385;623;19;6;75;310;4;33;39;467;444;17;7;156;1040;4;180;480;12;8;206;1831;4;236;485;12;9;110;933;4;138;512;8
21.01.18;15:30:00;1;1618;8691;0;2;63;235;4;85;356;9;3;83;803;4;117;472;13;4;20;109;3;21;200;6;5;90;567;4;28;35;385;623;19;6;64;303;4;35;42;467;444;17;7;125;1027;4;151;432;12;8;145;1814;4;185;487;12;9;85;924;4;106;459;8
21.01.18;15:25:00;1;1744;8541;0;2;56;230;4;81;351;9;3;77;796;4;109;448;13;4;5;107;3;5;199;6;5;86;560;4;26;31;385;623;19;6;58;298;4;27;33;467;444;17;7;111;1016;4;139;421;12;8;137;1801;4;171;451;12;9;32;917;3;40;553;8
21.01.18;15:20:00;1;2441;8410;0;2;59;225;4;82;355;8;3;79;790;4;116;455;13;4;11;107;3;12;200;6;5;90;553;4;31;35;385;623;19;6;63;293;4;34;41;467;444;17;7;120;1007;4;147;412;12;8;148;1790;4;176;411;12;9;78;913;4;103;499;8
21.01.18;15:15:00;1;2170;8204;0;2;70;220;4;92;356;8;3;95;783;4;131;481;13;4;19;106;3;19;199;6;5;101;545;4;35;38;385;623;19;6;70;288;4;29;34;467;444;16;7;139;997;4;167;451;12;8;173;1777;4;213;458;12;9;98;906;4;121;505;8
21.01.18;15:10:00;1;781;8028;0;2;68;214;4;92;359;8;3;98;775;4;133;479;13;4;16;104;3;16;200;6;5;103;537;4;35;37;385;623;18;6;69;282;4;28;32;467;444;16;7;151;986;4;159;477;12;8;187;1763;4;219;471;12;9;94;898;4;124;508;8
21.01.18;15:05:00;1;521;7953;0;2;57;208;4;80;358;8;3;86;767;4;120;467;12;4;13;103;3;13;199;6;5;92;528;4;30;36;385;623;18;6;41;276;4;25;29;516;560;15;7;110;973;4;141;475;12;8;150;1747;4;187;470;12;9;83;891;4;111;510;8
21.01.18;15:00:00;1;561;7910;0;2;33;203;4;48;388;8;3;71;760;4;105;466;12;4;5;102;3;5;199;6;5;83;520;4;25;33;385;623;18;6;0;273;8;7;2;467;631;15;7;66;963;4;102;496;12;8;111;1734;4;144;490;12;9;35;884;4;47;530;8
21.01.18;14:55:00;1;792;7849;0;2;7;201;6;12;435;8;3;60;754;4;93;460;12;4;3;101;3;3;212;6;5;73;513;4;20;22;385;623;18;6;0;273;8;6;5;560;627;15;7;58;958;4;97;477;12;8;99;1725;4;134;464;12;9;10;880;6;15;567;8
21.01.18;14:50:00;1;500;7793;0;2;12;200;6;19;422;8;3;59;749;4;94;453;12;4;1;101;3;1;221;6;5;74;507;4;20;25;385;623;18;6;0;273;1;8;4;488;626;15;7;57;952;4;98;473;12;8;93;1717;4;135;463;12;9;0;880;6;0;597;8
21.01.18;14:45:00;1;1050;7751;0;2;0;199;6;0;452;8;3;46;744;4;74;479;12;4;0;101;3;0;238;6;5;40;501;4;10;15;421;685;17;6;0;273;8;7;3;550;625;15;7;64;948;4;93;470;12;8;97;1709;4;128;475;12;9;18;880;3;28;532;8
21.01.18;14:40:00;1;443;7680;0;2;8;199;4;15;416;8;3;6;740;6;11;552;12;4;0;101;3;0;238;6;5;10;498;1;2;6;435;705;17;6;0;273;23;6;3;436;616;15;7;50;942;4;83;415;12;8;53;1701;4;96;467;12;9;6;878;6;8;564;8
21.01.18;14:35:00;1;748;7642;0;2;3;198;6;8;428;8;3;8;739;6;14;544;12;4;1;101;3;1;200;6;5;11;497;1;2;3;432;698;17;6;0;273;1;6;3;510;615;15;7;52;938;4;84;424;12;8;71;1697;4;101;445;12;9;8;877;6;12;559;8
21.01.18;14:30:00;1;484;7576;0;2;5;198;6;8;434;8;3;41;739;6;68;428;12;4;0;101;3;0;240;6;5;53;496;1;15;17;394;636;18;6;0;273;8;7;3;472;620;16;7;54;934;4;94;455;12;8;89;1691;4;120;437;12;9;7;877;6;11;566;8
21.01.18;14:25:00;1;1000;7537;0;2;7;198;6;12;435;8;3;63;736;4;98;445;12;4;1;101;3;1;239;6;5;77;492;4;21;26;383;619;18;6;0;273;1;5;2;532;627;16;7;64;929;4;101;483;12;8;110;1683;4;151;467;12;9;12;876;6;17;569;8
21.01.18;14:20:00;1;1493;7441;0;2;10;197;6;17;420;8;3;19;730;3;30;534;12;4;1;100;3;1;220;6;5;47;485;4;11;16;407;659;17;6;0;273;8;6;3;422;623;16;7;76;924;4;96;465;12;8;91;1674;4;125;471;12;9;8;875;6;13;571;8
21.01.18;14:15:00;1;2331;7298;0;2;0;196;6;0;449;8;3;11;729;6;17;555;12;4;1;100;3;1;213;6;5;41;482;1;9;10;413;668;18;6;23;273;1;14;16;534;514;16;7;61;918;4;93;424;12;8;74;1667;4;111;464;12;9;21;874;3;29;538;8
21.01.18;14:10:00;1;3344;7048;0;2;48;196;4;71;355;8;3;85;728;4;117;459;13;4;8;100;3;8;201;6;5;91;478;4;27;32;389;630;18;6;58;271;4;24;30;467;445;16;7;114;912;4;148;447;12;8;166;1660;4;198;440;12;9;89;872;4;111;479;9
21.01.18;14:05:00;1;3113;6779;0;2;52;192;4;76;354;8;3;95;720;4;132;460;13;4;14;100;3;14;201;6;5;97;471;4;32;35;389;630;18;6;63;266;4;29;35;467;445;16;7;116;903;4;156;467;12;8;175;1647;4;213;462;12;9;102;865;4;124;492;9
21.01.18;14:00:00;1;1237;6525;0;2;35;188;4;50;390;8;3;93;713;4;127;464;12;4;15;98;3;16;201;5;5;95;463;4;34;35;389;630;17;6;70;260;4;26;32;489;472;15;7;101;893;4;142;484;12;8;173;1632;4;198;476;12;9;92;856;4;115;478;9
21.01.18;13:55:00;1;388;6448;0;2;6;185;6;11;435;8;3;17;705;4;24;560;12;4;2;97;3;2;240;5;5;17;455;4;5;7;441;718;17;6;0;256;8;5;2;474;625;15;7;75;885;4;109;426;12;8;101;1618;4;140;472;12;9;15;849;4;20;567;8
21.01.18;13:50:00;1;798;6416;0;2;2;185;6;5;425;8;3;10;703;3;20;521;12;4;0;97;3;0;233;5;5;14;453;4;2;4;418;677;17;6;0;256;23;6;6;182;606;15;7;31;878;4;41;448;12;8;44;1609;4;66;456;12;9;15;847;3;24;503;8
21.01.18;13:45:00;1;529;6345;0;2;2;184;4;3;419;8;3;7;702;6;17;500;12;4;3;97;3;4;208;5;5;5;452;4;0;1;428;686;17;6;0;256;23;6;6;182;597;15;7;2;875;6;10;492;12;8;8;1605;6;12;496;12;9;6;845;6;8;546;9
21.01.18;13:40:00;1;533;6303;0;2;4;184;3;12;418;8;3;29;701;6;45;509;13;4;0;97;3;0;228;6;5;5;452;4;0;6;437;695;17;6;0;256;23;5;3;402;613;16;7;46;875;6;76;479;12;8;72;1605;6;107;488;12;9;10;845;6;14;567;9
21.01.18;13:35:00;1;773;6259;0;2;3;184;6;8;431;8;3;57;699;4;88;428;13;4;0;97;3;0;237;6;5;27;451;4;3;4;435;714;18;6;0;256;23;5;2;458;617;16;7;54;872;4;97;468;12;8;92;1599;4;136;473;13;9;10;844;6;15;565;9
21.01.18;13:30:00;1;511;6187;0;2;3;183;6;7;436;8;3;58;694;4;86;380;13;4;0;97;3;0;209;6;5;22;450;4;6;7;428;695;18;6;0;256;23;4;3;496;619;16;7;68;867;4;93;475;12;8;100;1591;4;138;468;12;9;22;843;6;29;552;9
21.01.18;13:25:00;1;908;6143;0;2;3;183;6;7;430;8;3;51;689;4;79;393;13;4;0;97;3;0;224;6;5;0;448;1;0;0;447;722;18;6;0;256;23;5;2;450;615;16;7;47;861;4;90;460;12;8;94;1583;4;132;457;13;9;10;842;6;14;565;9
21.01.18;13:20:00;1;552;6068;0;2;3;183;6;7;437;8;3;69;685;4;101;441;13;4;0;97;1;0;242;6;5;59;447;1;17;21;394;630;19;6;0;256;1;6;4;583;620;16;7;69;857;4;111;468;12;8;134;1575;4;169;457;13;9;57;841;6;80;494;9